| time (UTC) | temp F | wind direction | speed knots | gust knots | rain 1hr in | rain 24hr in | rain mn in | humidity % | barometer mb |
| 20260505100053 | 77 | 172 | 2.6 | 7.0 | 0.00 | 0.00 | 0.00 | 40 | 1014.1 |
| 20260505094553 | 77 | 131 | 2.6 | 7.8 | 0.00 | 0.00 | 0.00 | 41 | 1014.1 |
| 20260505093051 | 77 | 149 | 2.6 | 8.7 | 0.00 | 0.00 | 0.00 | 41 | 1014.3 |
| 20260505091605 | 76 | 214 | 2.6 | 8.7 | 0.00 | 0.00 | 0.00 | 42 | 1014.4 |
| 20260505090052 | 75 | 277 | 2.6 | 8.7 | 0.00 | 0.00 | 0.00 | 43 | 1014.5 |
| 20260505084559 | 73 | 281 | 2.6 | 6.1 | 0.00 | 0.00 | 0.00 | 44 | 1014.6 |
| 20260505083053 | 74 | 210 | 0.9 | 8.7 | 0.00 | 0.00 | 0.00 | 43 | 1014.8 |
| 20260505081555 | 74 | 198 | 1.7 | 4.3 | 0.00 | 0.00 | 0.00 | 43 | 1014.8 |
| 20260505080104 | 72 | 240 | 1.7 | 5.2 | 0.00 | 0.00 | 0.00 | 44 | 1015.0 |
| 20260505074555 | 71 | 243 | 0.0 | 4.3 | 0.00 | 0.00 | 0.00 | 48 | 1015.0 |
| 20260505073104 | 69 | 300 | 1.7 | 5.2 | 0.00 | 0.00 | 0.00 | 54 | 1015.0 |
| 20260505071555 | 68 | 108 | 2.6 | 4.3 | 0.00 | 0.00 | 0.00 | 56 | 1015.1 |
| 20260505070057 | 65 | 138 | 3.5 | 4.3 | 0.00 | 0.00 | 0.00 | 57 | 1015.2 |
| 20260505064554 | 63 | 129 | 2.6 | 3.5 | 0.00 | 0.00 | 0.00 | 60 | 1015.2 |
| 20260505063112 | 62 | 172 | 1.7 | 4.3 | 0.00 | 0.00 | 0.00 | 61 | 1015.2 |
| 20260505061601 | 61 | 195 | 1.7 | 4.3 | 0.00 | 0.00 | 0.00 | 62 | 1015.2 |
| 20260505060056 | 59 | 118 | 2.6 | 3.5 | 0.00 | 0.00 | 0.00 | 62 | 1015.2 |
| 20260505054609 | 57 | 131 | 1.7 | 3.5 | 0.00 | 0.00 | 0.00 | 66 | 1015.1 |
| 20260505053101 | 55 | 334 | 0.0 | 0.9 | 0.00 | 0.00 | 0.00 | 69 | 1015.1 |
| 20260505051601 | 50 | 0 | 0.0 | 0.9 | 0.00 | 0.00 | 0.00 | 75 | 1015.1 |
| 20260505041600 | 42 | 335 | 0.0 | 0.9 | 0.00 | 0.00 | 0.00 | 84 | 1014.9 |
| 20260505040057 | 41 | 340 | 0.9 | 0.9 | 0.00 | 0.00 | 0.00 | 85 | 1014.9 |
| 20260505034554 | 41 | 340 | 0.0 | 0.0 | 0.00 | 0.00 | 0.00 | 84 | 1014.9 |
| 20260505033052 | 41 | 343 | 0.9 | 1.7 | 0.00 | 0.00 | 0.00 | 85 | 1015.0 |
| 20260505031603 | 41 | 343 | 0.9 | 1.7 | 0.00 | 0.00 | 0.00 | 85 | 1014.9 |
| 20260505030054 | 41 | 0 | 0.0 | 0.9 | 0.00 | 0.00 | 0.00 | 84 | 1015.0 |
| 20260505024603 | 41 | 0 | 0.0 | 0.9 | 0.00 | 0.00 | 0.00 | 83 | 1015.1 |
| 20260505023054 | 41 | 0 | 0.0 | 0.0 | 0.00 | 0.00 | 0.00 | 82 | 1015.0 |
| 20260505021555 | 42 | 0 | 0.0 | 0.0 | 0.00 | 0.00 | 0.00 | 81 | 1015.0 |
| 20260505020054 | 43 | 0 | 0.9 | 0.9 | 0.00 | 0.00 | 0.00 | 81 | 1015.2 |
| 20260505014608 | 44 | 354 | 0.0 | 1.7 | 0.00 | 0.00 | 0.00 | 79 | 1015.2 |
| 20260505013055 | 44 | 354 | 0.9 | 2.6 | 0.00 | 0.00 | 0.00 | 79 | 1015.2 |
| 20260505011605 | 44 | 330 | 1.7 | 2.6 | 0.00 | 0.00 | 0.00 | 79 | 1015.3 |
| 20260505010100 | 44 | 354 | 0.9 | 2.6 | 0.00 | 0.00 | 0.00 | 79 | 1015.3 |
| 20260505004602 | 45 | 352 | 0.0 | 3.5 | 0.00 | 0.00 | 0.00 | 77 | 1015.3 |
| 20260505003108 | 45 | 324 | 1.7 | 3.5 | 0.00 | 0.00 | 0.00 | 80 | 1015.4 |
| 20260505001557 | 45 | 359 | 0.9 | 3.5 | 0.00 | 0.00 | 0.00 | 79 | 1015.4 |
| 20260505000116 | 45 | 360 | 1.7 | 3.5 | 0.00 | 0.00 | 0.00 | 80 | 1015.4 |
| 20260504234555 | 45 | 0 | 0.0 | 2.6 | 0.00 | 0.00 | 0.00 | 79 | 1015.5 |
| 20260504233108 | 45 | 0 | 0.0 | 0.9 | 0.00 | 0.00 | 0.00 | 79 | 1015.7 |
| 20260504231554 | 45 | 326 | 0.0 | 0.9 | 0.00 | 0.00 | 0.00 | 79 | 1015.7 |
| 20260504230053 | 46 | 322 | 0.0 | 0.9 | 0.00 | 0.00 | 0.00 | 78 | 1015.7 |
| 20260504224601 | 47 | 321 | 0.0 | 0.9 | 0.00 | 0.00 | 0.00 | 78 | 1015.8 |
| 20260504223129 | 47 | 0 | 0.0 | 0.0 | 0.00 | 0.00 | 0.00 | 77 | 1016.0 |
| 20260504221552 | 47 | 321 | 0.0 | 0.9 | 0.00 | 0.00 | 0.00 | 76 | 1016.0 |
| 20260504220053 | 48 | 321 | 0.0 | 0.9 | 0.00 | 0.00 | 0.00 | 75 | 1016.0 |
| 20260504214555 | 49 | 0 | 0.0 | 0.9 | 0.00 | 0.00 | 0.00 | 74 | 1016.0 |
| 20260504213101 | 49 | 321 | 0.0 | 0.9 | 0.00 | 0.00 | 0.00 | 73 | 1016.0 |
| 20260504211553 | 50 | 0 | 0.0 | 0.9 | 0.00 | 0.00 | 0.00 | 71 | 1016.0 |
| 20260504210058 | 51 | 0 | 0.0 | 0.9 | 0.00 | 0.00 | 0.00 | 72 | 1016.1 |
| 20260504204557 | 52 | 0 | 0.0 | 0.9 | 0.00 | 0.00 | 0.00 | 71 | 1016.0 |
| 20260504203108 | 54 | 0 | 0.0 | 0.0 | 0.00 | 0.00 | 0.00 | 70 | 1016.0 |
| 20260504201555 | 55 | 0 | 0.0 | 0.0 | 0.00 | 0.00 | 0.00 | 69 | 1015.9 |
| 20260504200106 | 55 | 0 | 0.0 | 0.9 | 0.00 | 0.00 | 0.00 | 69 | 1015.9 |
| 20260504194553 | 56 | 0 | 0.0 | 0.0 | 0.00 | 0.00 | 0.00 | 67 | 1015.9 |
| 20260504193058 | 57 | 0 | 0.0 | 0.9 | 0.00 | 0.00 | 0.00 | 65 | 1015.8 |
| 20260504191557 | 58 | 0 | 0.0 | 0.0 | 0.00 | 0.00 | 0.00 | 64 | 1015.8 |
| 20260504190054 | 60 | 0 | 0.0 | 0.9 | 0.00 | 0.00 | 0.00 | 62 | 1015.7 |
| 20260504184559 | 61 | 0 | 0.0 | 0.0 | 0.00 | 0.00 | 0.00 | 59 | 1015.6 |
| 20260504183057 | 63 | 0 | 0.0 | 0.0 | 0.00 | 0.00 | 0.00 | 56 | 1015.4 |
| 20260504181603 | 65 | 0 | 0.0 | 0.0 | 0.00 | 0.00 | 0.00 | 52 | 1015.3 |
| 20260504180059 | 67 | 0 | 0.0 | 0.0 | 0.00 | 0.00 | 0.00 | 48 | 1015.3 |
| 20260504174609 | 71 | 0 | 0.0 | 0.0 | 0.00 | 0.00 | 0.00 | 43 | 1015.2 |
| 20260504173055 | 74 | 0 | 0.0 | 1.7 | 0.00 | 0.00 | 0.00 | 38 | 1015.2 |
| 20260504171558 | 75 | 231 | 0.9 | 3.5 | 0.00 | 0.00 | 0.00 | 35 | 1015.1 |
| 20260504160104 | 78 | 140 | 3.5 | 8.7 | 0.00 | 0.00 | 0.00 | 28 | 1015.4 |
| 20260504150103 | 78 | 218 | 5.2 | 9.6 | 0.00 | 0.00 | 0.00 | 28 | 1015.7 |